Regional Weather Roundup
Issued by NWS Newport/Morehead, NC

Current Version | Previous Version | Graphics & Text | Print | Product List | Glossary Off
Versions: 1 2 3 4 5 6 7 8 9 10 11 12 13 14 15 16 17 18 19 20 21 22 23 24 25 26 27 28 29 30 31 32 33 34 35 36 37 38 39 40 41 42 43 44 45 46 47 48 49 50

000
ASUS42 KMHX 071613
RWRMHX
WEATHER ROUNDUP FOR EASTERN NORTH CAROLINA
NATIONAL WEATHER SERVICE NEWPORT/MOREHEAD CITY NC
1100 AM EST SUN FEB 07 2016

NOTE: "FAIR" INDICATES FEW OR NO CLOUDS BELOW 12,000 FEET
WITH NO SIGNIFICANT WEATHER AND/OR OBSTRUCTIONS TO VISIBILITY

NCZ015>017-031-032-045>047-102-103-071700-
NORTH COAST

CITY           SKY/WX    TMP DP  RH WIND       PRES   REMARKS
EDENTON        DRIZZLE   42  32  68 NE12G17   30.03F
ELIZABETH CITY CLOUDY    43  32  65 N16       30.05R
KITTY HAWK     LGT RAIN  45  40  82 N13G23    29.97F
MANTEO         LGT RAIN  45  42  89 NE20G31   29.98F

$$

NCZ045>047-081-094-103-104-071700-
CENTRAL COAST

CITY           SKY/WX    TMP DP  RH WIND       PRES   REMARKS
FRISCO         RAIN      47  45  93 NE20G32   29.86F
SWANQUARTER      N/A     43 N/A N/A NE12G25   29.91F

$$

NCZ095-097-098-100-101-071700-
SOUTHERN COAST

CITY           SKY/WX    TMP DP  RH WIND       PRES   REMARKS
BEAUFORT       RAIN      41  39  93 N26G39    29.83F FOG
CEDAR ISLAND     N/A     45 N/A N/A N22G41    29.94F
JACKSONVILLE   RAIN      35  31  85 N25G36    29.89F FOG
PINEY ISLAND   RAIN     N/A N/A N/A N26G36    29.88F
WILMINGTON     HVY RAIN  36  32  85 N20G35    29.87F FOG


$$

NCZ011>013-027>030-043-044-078>080-089-090>093-098-071700-
COASTAL PLAIN

CITY           SKY/WX    TMP DP  RH WIND       PRES   REMARKS
AHOSKIE        CLOUDY    37  28  69 N12       30.05F
CLINTON        RAIN      35  34  96 N12G17    30.00S
ELIZABETHTOWN  RAIN      35  33  94 N8G18     29.96F
GOLDSBORO      LGT RAIN  36  36 100 N13       29.99F
GREENVILLE     LGT RAIN  36  32  87 N10       30.03F
HAVELOCK       RAIN      39  36  89 N22G31    29.89F
KENANSVILLE    LGT SNOW  34  32  94 N16G23    30.00S
KINSTON        RAIN      36  32  87 N15G22    30.00F
NEW BERN       LGT RAIN  37  33  85 N13G24    29.95F
RICHLANDS      CLOUDY    34  27  75 N16G24    29.92F
ROCKY MOUNT    LGT RAIN  34  31  88 N12       30.04F FOG
WASHINGTON     LGT RAIN  36  32  86 N13       29.99F
WHITEVILLE     RAIN      35  33  92 N12G22    29.93S

$$

AMZ130-135-150-152-154-156-158-170-250-252-270-ANZ085-086-088-633-658-670-071700-
MARINE OBSERVATIONS

STATION/POSITION TIME  TEMP    WIND        PRES    WAVE   SWELL
                       AIR SEA DIR/SP/G            HT/PER HT/PER
                 (UTC) (F)     (DEG/KT/KT) (MB)    (FT/S) (FT/S)
CHESAPEAKE LIGHT 1600   43      40/ 27/ 30 1018.3
64 E VA BEACH    1550   50 54   40/ 25/ 29 1016.1    7/ 6   3/10
DUCK             1500   45 44   30/ 28/ 32 1016.2
2 E DUCK         1511      44                N/A     7/ 6   2/11
OREGON INLET     1500   46 46   10/ 16/ 23 1015.0
13E OREGON INLT  1600      47                N/A    10/ 7   2/11
HATTERAS CG      1500   47 48   20/ 25/ 31 1012.5
DIAMOND BUOY     1550   56 70   30/ 35/ 43 1008.9   10/ 7   3/11
CAPE LOOKOUT     NOT AVBL
BEAUFORT LAB     1500   41 49   10/ 21/ 29 1011.8
30 SE NEW RVR IN 1508   42 63              1006.5
30 SE NEW RVR IN 1525      64                N/A    11/ 6   2/11
27 SE WRIGHTSVLE NOT AVBL
5 SE WRIGHTSVLE  1508   40 53   30/ 33/ 41 1010.3
225 S CAPE HAT   1550   69 69  210/ 27/ 35   N/A     9/ 7   3/11
41 SE CHARLESTON 1550   48 66  350/ 23/ 27 1011.2   12/ 9   7/ 9

$$



USA.gov is the U.S. government's official web portal to all federal, state and local government web resources and services.